Location: Indian Hills
(32.9760°N, 85.9450°W)
Time: 08:13:58
(UTC+00:00)

Geosat - Pass Details

Date: 09 December 2019
Orbit: 763 x 766 km, 108.0° (Epoch: 28 January)

Event Time Altitude Azimuth Distance (km) Brightness Sun altitude
Exits shadow 00:18:12 41° 100° (E) 1,106 4.4 -20.7°
Maximum altitude 00:18:31 41° 110° (ESE) 1,097 4.4 -20.7°
Drops below altitude 10° 00:23:13 10° 180° (S) 2,293 6.6 -21.7°
Sets 00:25:36 0° 188° (S) 3,215 7.5 -22.2°
